• In Lithuania
  • List of Countries
  • For 7 days
  • Water Temperature
  • Satellite Maps
  • Weather Map
  • Weather Widgets
  • user-avatar
    Login

    Hourly Weather Szolnok

    Today, 25 September, Tuesday

    Time Temperature Precipitation Wind Pressure Humidity
    00:00 +9°C° 0 mm 5 mps 763 mmHg 52%
    01:00 +8°C° 0 mm 4 mps 763 mmHg 56%
    02:00 +8°C° 0 mm 5 mps 763 mmHg 57%
    03:00 +7°C° 0 mm 5 mps 763 mmHg 58%
    04:00 +7°C° 0 mm 5 mps 763 mmHg 60%
    05:00 +7°C° 0 mm 5 mps 764 mmHg 59%
    06:00 +8°C° 0 mm 6 mps 764 mmHg 59%
    07:00 +8°C° 0 mm 6 mps 765 mmHg 58%
    08:00 +10°C° 0 mm 5 mps 765 mmHg 51%
    09:00 +12°C° 0 mm 5 mps 765 mmHg 44%
    10:00 +14°C° 0 mm 4 mps 766 mmHg 37%
    11:00 +14°C° 0 mm 4 mps 766 mmHg 35%
    12:00 +16°C° 0 mm 3 mps 766 mmHg 32%
    13:00 +16°C° 0 mm 3 mps 766 mmHg 30%
    14:00 +16°C° 0 mm 3 mps 766 mmHg 30%
    15:00 +16°C° 0 mm 3 mps 766 mmHg 30%
    16:00 +16°C° 0 mm 3 mps 766 mmHg 30%
    17:00 +14°C° 0 mm 3 mps 767 mmHg 33%
    18:00 +13°C° 0 mm 2 mps 767 mmHg 37%
    19:00 +12°C° 0 mm 2 mps 768 mmHg 40%
    20:00 +10°C° 0 mm 2 mps 768 mmHg 43%
    21:00 +10°C° 0 mm 2 mps 769 mmHg 45%
    22:00 +9°C° 0 mm 2 mps 769 mmHg 48%
    23:00 +9°C° 0 mm 2 mps 769 mmHg 49%

    Tomorrow, 26 September, Wednesday

    Time Temperature Precipitation Wind Pressure Humidity
    00:00 +8°C° 0 mm 2 mps 770 mmHg 51%
    01:00 +8°C° 0 mm 2 mps 770 mmHg 52%
    02:00 +8°C° 0 mm 2 mps 770 mmHg 54%
    03:00 +7°C° 0 mm 2 mps 770 mmHg 55%
    04:00 +7°C° 0 mm 2 mps 770 mmHg 57%
    05:00 +8°C° 0 mm 2 mps 770 mmHg 55%
    06:00 +8°C° 0 mm 2 mps 771 mmHg 54%
    07:00 +9°C° 0 mm 2 mps 771 mmHg 53%
    08:00 +10°C° 0 mm 2 mps 771 mmHg 47%
    09:00 +13°C° 0 mm 2 mps 771 mmHg 40%
    10:00 +15°C° 0 mm 2 mps 771 mmHg 34%
    11:00 +16°C° 0 mm 2 mps 771 mmHg 32%
    12:00 +16°C° 0 mm 2 mps 770 mmHg 29%
    13:00 +17°C° 0 mm 2 mps 770 mmHg 27%
    14:00 +17°C° 0 mm 2 mps 769 mmHg 27%
    15:00 +17°C° 0 mm 2 mps 769 mmHg 27%
    16:00 +17°C° 0 mm 2 mps 768 mmHg 27%
    17:00 +16°C° 0 mm 1 mps 768 mmHg 30%
    18:00 +14°C° 0 mm 1 mps 768 mmHg 33%
    19:00 +13°C° 0 mm 1 mps 768 mmHg 36%
    20:00 +12°C° 0 mm 1 mps 768 mmHg 37%
    21:00 +12°C° 0 mm 1 mps 769 mmHg 38%
    22:00 +11°C° 0 mm 1 mps 769 mmHg 39%
    23:00 +11°C° 0 mm 1 mps 768 mmHg 39%

    Day after tomorrow, 27 September, Thursday

    Time Temperature Precipitation Wind Pressure Humidity
    00:00 +10°C° 0 mm 2 mps 768 mmHg 40%
    01:00 +9°C° 0 mm 2 mps 768 mmHg 41%
    02:00 +9°C° 0 mm 2 mps 768 mmHg 42%
    03:00 +9°C° 0 mm 2 mps 768 mmHg 42%
    04:00 +8°C° 0 mm 2 mps 767 mmHg 43%
    05:00 +9°C° 0 mm 2 mps 767 mmHg 42%
    06:00 +10°C° 0 mm 2 mps 767 mmHg 41%
    07:00 +10°C° 0 mm 2 mps 767 mmHg 41%
    08:00 +12°C° 0 mm 3 mps 767 mmHg 36%
    09:00 +16°C° 0 mm 3 mps 767 mmHg 32%
    10:00 +18°C° 0 mm 3 mps 767 mmHg 28%
    11:00 +19°C° 0 mm 3 mps 767 mmHg 26%
    12:00 +20°C° 0 mm 3 mps 766 mmHg 24%
    13:00 +21°C° 0 mm 3 mps 766 mmHg 22%
    14:00 +21°C° 0 mm 2 mps 765 mmHg 22%
    15:00 +21°C° 0 mm 2 mps 764 mmHg 23%
    16:00 +23°C° 0 mm 1 mps 764 mmHg 23%
    17:00 +21°C° 0 mm 1 mps 764 mmHg 26%
    18:00 +19°C° 0 mm 1 mps 764 mmHg 28%
    19:00 +16°C° 0 mm 1 mps 763 mmHg 31%
    20:00 +16°C° 0 mm 1 mps 763 mmHg 32%
    21:00 +15°C° 0 mm 1 mps 763 mmHg 33%
    22:00 +15°C° 0 mm 1 mps 763 mmHg 34%
    23:00 +15°C° 0 mm 1 mps 762 mmHg 35%

    28 September, Friday

    Time Temperature Precipitation Wind Pressure Humidity
    00:00 +14°C° 0 mm 1 mps 762 mmHg 36%
    01:00 +14°C° 0 mm 1 mps 762 mmHg 37%
    02:00 +13°C° 0 mm 1 mps 761 mmHg 38%
    03:00 +13°C° 0 mm 1 mps 761 mmHg 39%
    04:00 +13°C° 0 mm 1 mps 761 mmHg 39%
    05:00 +13°C° 0 mm 1 mps 760 mmHg 39%
    06:00 +14°C° 0 mm 1 mps 760 mmHg 38%
    07:00 +13°C° 0 mm 0 mps 760 mmHg 37%
    08:00 +18°C° 0 mm 1 mps 760 mmHg 33%
    09:00 +20°C° 0 mm 1 mps 760 mmHg 29%
    10:00 +22°C° 0 mm 1 mps 760 mmHg 26%
    11:00 +23°C° 0 mm 1 mps 759 mmHg 25%
    12:00 +24°C° 0 mm 1 mps 759 mmHg 24%
    13:00 +25°C° 0 mm 2 mps 758 mmHg 23%
    14:00 +25°C° 0 mm 1 mps 757 mmHg 24%
    15:00 +25°C° 0 mm 1 mps 757 mmHg 25%
    16:00 +25°C° 0 mm 1 mps 756 mmHg 25%
    17:00 +23°C° 0 mm 1 mps 756 mmHg 28%
    18:00 +22°C° 0 mm 1 mps 756 mmHg 31%
    19:00 +20°C° 0 mm 1 mps 756 mmHg 34%
    20:00 +19°C° 0 mm 1 mps 756 mmHg 35%
    21:00 +19°C° 0 mm 1 mps 756 mmHg 36%
    22:00 +18°C° 0 mm 1 mps 756 mmHg 37%
    23:00 +18°C° 0 mm 1 mps 755 mmHg 39%

    29 September, Saturday

    Time Temperature Precipitation Wind Pressure Humidity
    00:00 +16°C° 0 mm 1 mps 755 mmHg 40%
    01:00 +16°C° 0 mm 1 mps 755 mmHg 41%
    02:00 +15°C° 0 mm 2 mps 755 mmHg 44%
    03:00 +15°C° 0 mm 2 mps 755 mmHg 46%
    04:00 +14°C° 0 mm 2 mps 755 mmHg 48%
    05:00 +14°C° 0 mm 2 mps 755 mmHg 49%
    06:00 +14°C° 0 mm 3 mps 755 mmHg 51%
    07:00 +14°C° 0 mm 3 mps 755 mmHg 52%
    08:00 +17°C° 0 mm 4 mps 755 mmHg 49%
    09:00 +18°C° 0 mm 4 mps 755 mmHg 46%
    10:00 +20°C° 0 mm 5 mps 756 mmHg 43%
    11:00 +20°C° 0 mm 5 mps 756 mmHg 43%
    12:00 +21°C° 0 mm 6 mps 755 mmHg 43%
    13:00 +21°C° 0 mm 6 mps 755 mmHg 43%
    14:00 +20°C° 0 mm 6 mps 755 mmHg 43%
    15:00 +18°C° 0 mm 7 mps 755 mmHg 44%
    16:00 +18°C° 0 mm 7 mps 755 mmHg 44%
    17:00 +17°C° 0 mm 6 mps 756 mmHg 46%
    18:00 +16°C° 0 mm 6 mps 756 mmHg 48%
    19:00 +15°C° 0 mm 5 mps 757 mmHg 50%
    20:00 +14°C° 0 mm 5 mps 757 mmHg 51%
    21:00 +13°C° 0 mm 5 mps 757 mmHg 52%
    22:00 +13°C° 0 mm 5 mps 757 mmHg 53%
    23:00 +12°C° 0 mm 5 mps 757 mmHg 55%

    30 September, Sunday

    Time Temperature Precipitation Wind Pressure Humidity
    00:00 +11°C° 0 mm 4 mps 757 mmHg 58%
    01:00 +11°C° 0 mm 4 mps 757 mmHg 61%
    02:00 +10°C° 0 mm 4 mps 757 mmHg 64%
    03:00 +10°C° 0 mm 4 mps 757 mmHg 66%
    04:00 +10°C° 0 mm 3 mps 757 mmHg 69%
    05:00 +10°C° 0 mm 4 mps 757 mmHg 68%
    06:00 +10°C° 0 mm 4 mps 757 mmHg 66%
    07:00 +11°C° 0 mm 4 mps 758 mmHg 65%
    08:00 +13°C° 0 mm 4 mps 758 mmHg 60%
    09:00 +16°C° 0 mm 3 mps 758 mmHg 56%
    10:00 +17°C° 0 mm 3 mps 758 mmHg 51%
    11:00 +19°C° 0 mm 3 mps 758 mmHg 49%
    12:00 +20°C° 0 mm 3 mps 757 mmHg 46%
    13:00 +21°C° 0 mm 2 mps 757 mmHg 44%
    14:00 +21°C° 0 mm 2 mps 757 mmHg 44%
    15:00 +21°C° 0 mm 2 mps 756 mmHg 44%
    16:00 +21°C° 0 mm 2 mps 756 mmHg 45%
    17:00 +20°C° 0 mm 2 mps 756 mmHg 50%
    18:00 +18°C° 0 mm 2 mps 756 mmHg 55%
    19:00 +17°C° 0 mm 2 mps 756 mmHg 60%
    20:00 +16°C° 0 mm 2 mps 756 mmHg 63%
    21:00 +15°C° 0 mm 2 mps 756 mmHg 66%
    22:00 +15°C° 0 mm 2 mps 756 mmHg 68%
    23:00 +14°C° 0 mm 2 mps 756 mmHg 70%
    Show more